When you browse on this site, cookies collect data to enhance your experience and personalize the content and advertising you see.
Visit our Privacy Policy to learn more. By continuing to use the site, you agree to this use of cookies and data.
  • Em Portugal
  • Lista de países
  • Para 7 dias
  • Temperatura da água
  • Mapas de satélite
  • Mapa do tempo
  • Widgets de tempo
  • user-avatar
    Iniciar Sessão

    Previsão horária em Curitiba

    Hoje, 21 Janeiro, Segunda-feira

    Tempo Temperatura Precipitação Vento Pressão Humidade
    00:00 +21°C° 0.3 mm 1 m/s 682 mmHg 97%
    01:00 +21°C° 0 mm 1 m/s 682 mmHg 97%
    02:00 +21°C° 0 mm 1 m/s 681 mmHg 97%
    03:00 +21°C° 0 mm 1 m/s 681 mmHg 96%
    04:00 +21°C° 0 mm 1 m/s 681 mmHg 96%
    05:00 +21°C° 0 mm 1 m/s 681 mmHg 96%
    06:00 +21°C° 0 mm 1 m/s 681 mmHg 96%
    07:00 +22°C° 0 mm 1 m/s 682 mmHg 91%
    08:00 +23°C° 0 mm 1 m/s 682 mmHg 86%
    09:00 +24°C° 0 mm 1 m/s 683 mmHg 80%
    10:00 +27°C° 0 mm 2 m/s 683 mmHg 70%
    11:00 +29°C° 0 mm 2 m/s 683 mmHg 60%
    12:00 +31°C° 0 mm 2 m/s 683 mmHg 50%
    13:00 +31°C° 0.3 mm 2 m/s 683 mmHg 51%
    14:00 +31°C° 0.3 mm 2 m/s 683 mmHg 52%
    15:00 +31°C° 0.3 mm 2 m/s 682 mmHg 53%
    16:00 +30°C° 0.8 mm 2 m/s 682 mmHg 60%
    17:00 +29°C° 0.8 mm 1 m/s 682 mmHg 67%
    18:00 +28°C° 0.8 mm 1 m/s 681 mmHg 75%
    19:00 +26°C° 0.7 mm 1 m/s 682 mmHg 78%
    20:00 +23°C° 0.7 mm 0 m/s 682 mmHg 82%
    21:00 +21°C° 0.7 mm 0 m/s 682 mmHg 86%
    22:00 +21°C° 0.1 mm 0 m/s 682 mmHg 87%
    23:00 +21°C° 0.1 mm 0 m/s 682 mmHg 88%

    Amanhã, 22 Janeiro, Terça-feira

    Tempo Temperatura Precipitação Vento Pressão Humidade
    00:00 +20°C° 0.1 mm 0 m/s 683 mmHg 89%
    01:00 +20°C° 0 mm 0 m/s 682 mmHg 90%
    02:00 +20°C° 0 mm 0 m/s 682 mmHg 91%
    03:00 +20°C° 0 mm 0 m/s 682 mmHg 92%
    04:00 +19°C° 0 mm 0 m/s 682 mmHg 92%
    05:00 +19°C° 0 mm 0 m/s 682 mmHg 93%
    06:00 +19°C° 0 mm 0 m/s 682 mmHg 93%
    07:00 +22°C° 0 mm 0 m/s 683 mmHg 83%
    08:00 +24°C° 0 mm 0 m/s 684 mmHg 73%
    09:00 +27°C° 0 mm 0 m/s 685 mmHg 63%
    10:00 +28°C° 0.3 mm 0 m/s 685 mmHg 59%
    11:00 +30°C° 0.3 mm 0 m/s 685 mmHg 56%
    12:00 +31°C° 0.3 mm 0 m/s 685 mmHg 52%
    13:00 +32°C° 0.8 mm 1 m/s 684 mmHg 55%
    14:00 +31°C° 0.8 mm 1 m/s 683 mmHg 58%
    15:00 +31°C° 0.8 mm 1 m/s 683 mmHg 61%
    16:00 +29°C° 1.8 mm 1 m/s 682 mmHg 70%
    17:00 +27°C° 1.8 mm 2 m/s 682 mmHg 79%
    18:00 +25°C° 1.8 mm 2 m/s 682 mmHg 88%
    19:00 +25°C° 0.7 mm 1 m/s 682 mmHg 89%
    20:00 +24°C° 0.7 mm 1 m/s 682 mmHg 91%
    21:00 +23°C° 0.7 mm 1 m/s 683 mmHg 92%
    22:00 +23°C° 0 mm 1 m/s 683 mmHg 94%
    23:00 +23°C° 0 mm 1 m/s 683 mmHg 95%

    Depois de amanhã, 23 Janeiro, Quarta-feira

    Tempo Temperatura Precipitação Vento Pressão Humidade
    00:00 +22°C° 0 mm 1 m/s 683 mmHg 96%
    01:00 +22°C° 0 mm 1 m/s 683 mmHg 96%
    02:00 +20°C° 0 mm 0 m/s 682 mmHg 96%
    03:00 +20°C° 0 mm 0 m/s 682 mmHg 96%
    04:00 +19°C° 0 mm 0 m/s 682 mmHg 96%
    05:00 +19°C° 0 mm 0 m/s 682 mmHg 96%
    06:00 +19°C° 0 mm 0 m/s 682 mmHg 96%
    07:00 +22°C° 0 mm 0 m/s 683 mmHg 86%
    08:00 +24°C° 0 mm 0 m/s 684 mmHg 76%
    09:00 +26°C° 0 mm 0 m/s 684 mmHg 66%
    10:00 +28°C° 0.2 mm 0 m/s 684 mmHg 62%
    11:00 +29°C° 0.2 mm 0 m/s 684 mmHg 58%
    12:00 +30°C° 0.2 mm 0 m/s 684 mmHg 54%
    13:00 +29°C° 2.1 mm 0 m/s 684 mmHg 60%
    14:00 +31°C° 2.1 mm 1 m/s 683 mmHg 66%
    15:00 +30°C° 2.1 mm 1 m/s 682 mmHg 72%
    16:00 +29°C° 1.7 mm 1 m/s 682 mmHg 74%
    17:00 +28°C° 1.7 mm 1 m/s 682 mmHg 77%
    18:00 +27°C° 1.7 mm 1 m/s 681 mmHg 79%
    19:00 +26°C° 1.1 mm 1 m/s 682 mmHg 81%
    20:00 +23°C° 1.1 mm 0 m/s 682 mmHg 83%
    21:00 +22°C° 1.1 mm 0 m/s 682 mmHg 86%
    22:00 +21°C° 0 mm 0 m/s 682 mmHg 87%
    23:00 +21°C° 0 mm 0 m/s 682 mmHg 88%

    24 Janeiro, Quinta-feira

    Tempo Temperatura Precipitação Vento Pressão Humidade
    00:00 +21°C° 0 mm 0 m/s 682 mmHg 89%
    01:00 +20°C° 0 mm 0 m/s 682 mmHg 90%
    02:00 +20°C° 0 mm 0 m/s 681 mmHg 91%
    03:00 +20°C° 0 mm 0 m/s 680 mmHg 91%
    04:00 +20°C° 0 mm 0 m/s 681 mmHg 92%
    05:00 +19°C° 0 mm 0 m/s 681 mmHg 92%
    06:00 +19°C° 0 mm 0 m/s 681 mmHg 93%
    07:00 +23°C° 0 mm 1 m/s 682 mmHg 83%
    08:00 +26°C° 0 mm 1 m/s 683 mmHg 73%
    09:00 +28°C° 0 mm 1 m/s 683 mmHg 62%
    10:00 +29°C° 0.2 mm 1 m/s 683 mmHg 60%
    11:00 +30°C° 0.2 mm 1 m/s 683 mmHg 57%
    12:00 +31°C° 0.2 mm 2 m/s 683 mmHg 54%
    13:00 +30°C° 1.5 mm 2 m/s 683 mmHg 60%
    14:00 +29°C° 1.5 mm 2 m/s 682 mmHg 65%
    15:00 +28°C° 1.5 mm 2 m/s 681 mmHg 71%
    16:00 +27°C° 0.8 mm 2 m/s 681 mmHg 75%
    17:00 +26°C° 0.8 mm 2 m/s 681 mmHg 79%
    18:00 +25°C° 0.8 mm 3 m/s 681 mmHg 83%
    19:00 +24°C° 0.4 mm 2 m/s 682 mmHg 86%
    20:00 +23°C° 0.4 mm 2 m/s 682 mmHg 90%
    21:00 +21°C° 0.4 mm 2 m/s 683 mmHg 93%
    22:00 +20°C° 0 mm 2 m/s 683 mmHg 94%
    23:00 +21°C° 0 mm 1 m/s 683 mmHg 94%

    25 Janeiro, Sexta-feira

    Tempo Temperatura Precipitação Vento Pressão Humidade
    00:00 +20°C° 0 mm 1 m/s 683 mmHg 95%
    01:00 +20°C° 0 mm 1 m/s 682 mmHg 95%
    02:00 +19°C° 0 mm 1 m/s 681 mmHg 95%
    03:00 +19°C° 0 mm 1 m/s 680 mmHg 96%
    04:00 +19°C° 0 mm 1 m/s 680 mmHg 96%
    05:00 +19°C° 0 mm 1 m/s 680 mmHg 96%
    06:00 +17°C° 0 mm 0 m/s 680 mmHg 96%
    07:00 +21°C° 0 mm 1 m/s 681 mmHg 86%
    08:00 +23°C° 0 mm 1 m/s 682 mmHg 77%
    09:00 +25°C° 0 mm 1 m/s 683 mmHg 68%
    10:00 +26°C° 0.1 mm 1 m/s 683 mmHg 65%
    11:00 +27°C° 0.1 mm 1 m/s 683 mmHg 63%
    12:00 +28°C° 0.1 mm 1 m/s 683 mmHg 60%
    13:00 +28°C° 0.7 mm 2 m/s 682 mmHg 63%
    14:00 +28°C° 0.7 mm 2 m/s 681 mmHg 66%
    15:00 +28°C° 0.7 mm 2 m/s 681 mmHg 69%
    16:00 +27°C° 0.3 mm 2 m/s 681 mmHg 71%
    17:00 +26°C° 0.3 mm 2 m/s 681 mmHg 73%
    18:00 +26°C° 0.3 mm 2 m/s 681 mmHg 75%
    19:00 +24°C° 0.2 mm 2 m/s 681 mmHg 82%
    20:00 +23°C° 0.2 mm 2 m/s 682 mmHg 88%
    21:00 +20°C° 0.2 mm 2 m/s 682 mmHg 94%
    22:00 +21°C° 0 mm 1 m/s 682 mmHg 94%
    23:00 +20°C° 0 mm 1 m/s 682 mmHg 95%

    26 Janeiro, Sábado

    Tempo Temperatura Precipitação Vento Pressão Humidade
    00:00 +20°C° 0 mm 1 m/s 682 mmHg 96%
    01:00 +20°C° 0 mm 1 m/s 681 mmHg 95%
    02:00 +19°C° 0 mm 1 m/s 681 mmHg 95%
    03:00 +19°C° 0 mm 1 m/s 680 mmHg 95%
    04:00 +19°C° 0 mm 1 m/s 680 mmHg 95%
    05:00 +17°C° 0 mm 0 m/s 681 mmHg 94%
    06:00 +16°C° 0 mm 0 m/s 681 mmHg 94%
    07:00 +21°C° 0 mm 1 m/s 682 mmHg 86%
    08:00 +23°C° 0 mm 1 m/s 683 mmHg 77%
    09:00 +25°C° 0 mm 1 m/s 684 mmHg 68%
    10:00 +27°C° 0 mm 1 m/s 684 mmHg 60%
    11:00 +29°C° 0 mm 1 m/s 684 mmHg 51%
    12:00 +31°C° 0 mm 1 m/s 684 mmHg 43%
    13:00 +31°C° 0.1 mm 1 m/s 684 mmHg 43%
    14:00 +31°C° 0.1 mm 2 m/s 683 mmHg 43%
    15:00 +31°C° 0.1 mm 2 m/s 683 mmHg 43%
    16:00 +30°C° 0.6 mm 2 m/s 682 mmHg 53%
    17:00 +28°C° 0.6 mm 2 m/s 682 mmHg 63%
    18:00 +26°C° 0.6 mm 2 m/s 682 mmHg 73%
    19:00 +25°C° 0.5 mm 2 m/s 682 mmHg 79%
    20:00 +23°C° 0.5 mm 2 m/s 682 mmHg 86%
    21:00 +22°C° 0.5 mm 1 m/s 683 mmHg 93%
    22:00 +22°C° 0.1 mm 1 m/s 683 mmHg 94%
    23:00 +21°C° 0.1 mm 1 m/s 683 mmHg 95%
    Mostrar mais